When you browse on this site, cookies collect data to enhance your experience and personalize the content and advertising you see.
Visit our Privacy Policy to learn more. By continuing to use the site, you agree to this use of cookies and data.
  • In Austria
  • List of Countries
  • For 7 days
  • Water Temperature
  • Satellite Maps
  • Weather Map
  • News
  • Weather Widgets
  • user-avatar
    Login

    Hourly Weather Rohove

    Today, 25 April, Thursday

    Time Temperature Precipitation Wind Pressure Humidity
    00:00 +14°C° 0 mm 1 mps 762 mmHg 59%
    01:00 +14°C° 0 mm 1 mps 762 mmHg 60%
    02:00 +13°C° 0 mm 1 mps 762 mmHg 61%
    03:00 +13°C° 0 mm 1 mps 762 mmHg 61%
    04:00 +13°C° 0 mm 1 mps 762 mmHg 63%
    05:00 +13°C° 0 mm 1 mps 762 mmHg 64%
    06:00 +13°C° 0 mm 1 mps 762 mmHg 66%
    07:00 +15°C° 0 mm 1 mps 762 mmHg 61%
    08:00 +17°C° 0 mm 2 mps 762 mmHg 55%
    09:00 +19°C° 0 mm 2 mps 762 mmHg 50%
    10:00 +21°C° 0 mm 2 mps 762 mmHg 46%
    11:00 +23°C° 0 mm 2 mps 762 mmHg 42%
    12:00 +25°C° 0 mm 2 mps 762 mmHg 38%
    13:00 +25°C° 0 mm 2 mps 762 mmHg 37%
    14:00 +25°C° 0 mm 2 mps 761 mmHg 36%
    15:00 +26°C° 0 mm 2 mps 761 mmHg 35%
    16:00 +26°C° 0 mm 2 mps 761 mmHg 38%
    17:00 +25°C° 0 mm 1 mps 761 mmHg 41%
    18:00 +25°C° 0 mm 1 mps 760 mmHg 44%
    19:00 +23°C° 0 mm 1 mps 760 mmHg 47%
    20:00 +21°C° 0 mm 1 mps 760 mmHg 50%
    21:00 +17°C° 0 mm 0 mps 760 mmHg 53%
    22:00 +17°C° 0 mm 0 mps 760 mmHg 55%
    23:00 +16°C° 0 mm 0 mps 760 mmHg 56%

    Tomorrow, 26 April, Friday

    Time Temperature Precipitation Wind Pressure Humidity
    00:00 +16°C° 0 mm 0 mps 760 mmHg 58%
    01:00 +15°C° 0.1 mm 0 mps 760 mmHg 60%
    02:00 +16°C° 0.1 mm 1 mps 760 mmHg 62%
    03:00 +16°C° 0.1 mm 1 mps 760 mmHg 64%
    04:00 +16°C° 0.2 mm 1 mps 760 mmHg 66%
    05:00 +15°C° 0.2 mm 1 mps 760 mmHg 68%
    06:00 +15°C° 0.2 mm 1 mps 760 mmHg 69%
    07:00 +18°C° 0.4 mm 1 mps 760 mmHg 67%
    08:00 +18°C° 0.4 mm 2 mps 759 mmHg 66%
    09:00 +19°C° 0.4 mm 2 mps 759 mmHg 64%
    10:00 +20°C° 0 mm 2 mps 759 mmHg 58%
    11:00 +21°C° 0 mm 2 mps 759 mmHg 52%
    12:00 +24°C° 0 mm 1 mps 759 mmHg 46%
    13:00 +24°C° 0 mm 1 mps 759 mmHg 43%
    14:00 +25°C° 0 mm 1 mps 759 mmHg 41%
    15:00 +25°C° 0 mm 1 mps 758 mmHg 38%
    16:00 +25°C° 0 mm 1 mps 758 mmHg 41%
    17:00 +25°C° 0 mm 1 mps 758 mmHg 44%
    18:00 +25°C° 0 mm 1 mps 758 mmHg 46%
    19:00 +23°C° 0 mm 1 mps 758 mmHg 51%
    20:00 +20°C° 0 mm 2 mps 758 mmHg 56%
    21:00 +18°C° 0 mm 2 mps 758 mmHg 61%
    22:00 +17°C° 0.2 mm 2 mps 758 mmHg 69%
    23:00 +17°C° 0.2 mm 3 mps 758 mmHg 76%

    Day after tomorrow, 27 April, Saturday

    Time Temperature Precipitation Wind Pressure Humidity
    00:00 +15°C° 0.2 mm 4 mps 758 mmHg 83%
    01:00 +16°C° 0 mm 3 mps 758 mmHg 84%
    02:00 +16°C° 0 mm 2 mps 758 mmHg 85%
    03:00 +15°C° 0 mm 2 mps 758 mmHg 86%
    04:00 +15°C° 0 mm 1 mps 757 mmHg 86%
    05:00 +15°C° 0 mm 1 mps 757 mmHg 85%
    06:00 +14°C° 0 mm 1 mps 757 mmHg 85%
    07:00 +16°C° 0 mm 1 mps 757 mmHg 76%
    08:00 +18°C° 0 mm 2 mps 757 mmHg 67%
    09:00 +20°C° 0 mm 2 mps 757 mmHg 58%
    10:00 +21°C° 0 mm 3 mps 757 mmHg 51%
    11:00 +22°C° 0 mm 4 mps 756 mmHg 45%
    12:00 +23°C° 0 mm 4 mps 756 mmHg 38%
    13:00 +25°C° 0 mm 4 mps 756 mmHg 37%
    14:00 +25°C° 0 mm 4 mps 755 mmHg 36%
    15:00 +25°C° 0 mm 4 mps 755 mmHg 35%
    16:00 +23°C° 0 mm 4 mps 755 mmHg 39%
    17:00 +24°C° 0 mm 3 mps 755 mmHg 43%
    18:00 +23°C° 0 mm 2 mps 754 mmHg 46%
    19:00 +21°C° 0 mm 3 mps 754 mmHg 50%
    20:00 +19°C° 0 mm 3 mps 754 mmHg 54%
    21:00 +17°C° 0 mm 3 mps 754 mmHg 58%
    22:00 +17°C° 0 mm 3 mps 754 mmHg 61%
    23:00 +16°C° 0 mm 3 mps 754 mmHg 64%

    28 April, Sunday

    Time Temperature Precipitation Wind Pressure Humidity
    00:00 +16°C° 0 mm 3 mps 754 mmHg 68%
    01:00 +14°C° 0 mm 3 mps 754 mmHg 72%
    02:00 +14°C° 0 mm 3 mps 753 mmHg 76%
    03:00 +13°C° 0 mm 3 mps 753 mmHg 80%
    04:00 +13°C° 0 mm 3 mps 753 mmHg 80%
    05:00 +14°C° 0 mm 2 mps 753 mmHg 80%
    06:00 +14°C° 0 mm 2 mps 753 mmHg 81%
    07:00 +16°C° 0 mm 2 mps 753 mmHg 74%
    08:00 +17°C° 0 mm 3 mps 753 mmHg 68%
    09:00 +19°C° 0 mm 3 mps 753 mmHg 61%
    10:00 +21°C° 0 mm 3 mps 752 mmHg 54%
    11:00 +22°C° 0 mm 4 mps 752 mmHg 47%
    12:00 +23°C° 0 mm 4 mps 752 mmHg 40%
    13:00 +25°C° 0 mm 4 mps 752 mmHg 41%
    14:00 +25°C° 0 mm 5 mps 751 mmHg 41%
    15:00 +25°C° 0 mm 5 mps 751 mmHg 42%
    16:00 +23°C° 0 mm 5 mps 751 mmHg 47%
    17:00 +22°C° 0 mm 4 mps 750 mmHg 53%
    18:00 +20°C° 0 mm 3 mps 750 mmHg 58%
    19:00 +20°C° 0 mm 3 mps 750 mmHg 60%
    20:00 +19°C° 0 mm 3 mps 750 mmHg 61%
    21:00 +18°C° 0 mm 3 mps 750 mmHg 63%
    22:00 +18°C° 0 mm 3 mps 750 mmHg 63%
    23:00 +17°C° 0 mm 3 mps 750 mmHg 64%

    29 April, Monday

    Time Temperature Precipitation Wind Pressure Humidity
    00:00 +17°C° 0 mm 3 mps 750 mmHg 64%
    01:00 +17°C° 0 mm 2 mps 750 mmHg 66%
    02:00 +16°C° 0 mm 2 mps 750 mmHg 69%
    03:00 +15°C° 0 mm 1 mps 750 mmHg 71%
    04:00 +15°C° 0 mm 2 mps 751 mmHg 76%
    05:00 +13°C° 0 mm 3 mps 751 mmHg 80%
    06:00 +13°C° 0 mm 3 mps 751 mmHg 85%
    07:00 +12°C° 0.1 mm 4 mps 751 mmHg 84%
    08:00 +12°C° 0.1 mm 5 mps 751 mmHg 83%
    09:00 +10°C° 0.1 mm 6 mps 752 mmHg 82%
    10:00 +10°C° 0.5 mm 6 mps 752 mmHg 82%
    11:00 +9°C° 0.5 mm 6 mps 752 mmHg 83%
    12:00 +8°C° 0.5 mm 6 mps 753 mmHg 83%
    13:00 +8°C° 0.5 mm 6 mps 753 mmHg 83%
    14:00 +8°C° 0.5 mm 6 mps 753 mmHg 82%
    15:00 +8°C° 0.5 mm 7 mps 754 mmHg 82%
    16:00 +8°C° 0.1 mm 7 mps 754 mmHg 79%
    17:00 +8°C° 0.1 mm 7 mps 754 mmHg 76%
    18:00 +8°C° 0.1 mm 7 mps 754 mmHg 73%
    19:00 +7°C° 0 mm 6 mps 755 mmHg 75%
    20:00 +6°C° 0 mm 5 mps 755 mmHg 77%
    21:00 +5°C° 0 mm 4 mps 756 mmHg 78%
    22:00 +5°C° 0 mm 4 mps 756 mmHg 77%
    23:00 +5°C° 0 mm 4 mps 756 mmHg 75%

    30 April, Tuesday

    Time Temperature Precipitation Wind Pressure Humidity
    00:00 +5°C° 0 mm 5 mps 757 mmHg 73%
    01:00 +5°C° 0 mm 5 mps 757 mmHg 71%
    02:00 +5°C° 0 mm 5 mps 757 mmHg 69%
    03:00 +5°C° 0 mm 5 mps 757 mmHg 67%
    04:00 +5°C° 0 mm 5 mps 757 mmHg 65%
    05:00 +4°C° 0 mm 6 mps 757 mmHg 64%
    06:00 +4°C° 0 mm 6 mps 757 mmHg 63%
    07:00 +4°C° 0 mm 6 mps 758 mmHg 61%
    08:00 +5°C° 0 mm 7 mps 758 mmHg 59%
    09:00 +5°C° 0 mm 7 mps 758 mmHg 57%
    10:00 +5°C° 0 mm 7 mps 758 mmHg 55%
    11:00 +6°C° 0 mm 7 mps 758 mmHg 53%
    12:00 +6°C° 0 mm 7 mps 758 mmHg 51%
    13:00 +8°C° 0 mm 6 mps 758 mmHg 52%
    14:00 +8°C° 0 mm 6 mps 758 mmHg 52%
    15:00 +8°C° 0 mm 5 mps 757 mmHg 53%
    16:00 +8°C° 0.1 mm 5 mps 757 mmHg 55%
    17:00 +8°C° 0.1 mm 5 mps 757 mmHg 57%
    18:00 +7°C° 0.1 mm 5 mps 757 mmHg 60%
    19:00 +7°C° 0 mm 5 mps 757 mmHg 60%
    20:00 +7°C° 0 mm 5 mps 757 mmHg 61%
    21:00 +7°C° 0 mm 5 mps 757 mmHg 61%
    22:00 +7°C° 0 mm 5 mps 757 mmHg 61%
    23:00 +7°C° 0 mm 5 mps 756 mmHg 60%
    Show more